Volver al catálogo

ELARA 1

ActivoCienciaSSO
NORAD 64539·PAYLOAD·🇦🇺 Australia

Lanzado Jun 23, 2025 desde Vandenberg Space Force Base

Loading…

Próximos Pases (próximas 24 horas)

TLE

ActualizadoSource: Space-Track

Época: Sep 13, 2026, 20:31 UTC

1 64539U 25135M   26256.85503096  .00003966  00000-0  16901-3 0  9994
2 64539  97.4799  12.0144 0001986 192.8314 167.2873 15.23536255 68373

Sigue ELARA 1 en tiempo real con AllMySat

Download on the App Store